This is the latest recevied weather packets stored in our database for station/object AB4KY. If no packets are shown the sender has not sent any weather packets the latest 10 day(s).
| Time | Temp. | Humidity | Pressure | Rain* | Wind** | Luminosity | Snow |
|---|---|---|---|---|---|---|---|
| 1777671213 | 12.78° C | 58% | 1012.7 hPa | 0 mm | - | 89 W/m² | - |
| 1777670909 | 12.78° C | 56% | 1012.8 hPa | 0 mm | - | 78 W/m² | - |
| 1777670606 | 12.78° C | 55% | 1012.7 hPa | 0 mm | - | 61 W/m² | - |
| 1777670303 | 13.33° C | 55% | 1012.9 hPa | 0 mm | - | 39 W/m² | - |
| 1777670000 | 13.89° C | 55% | 1012.7 hPa | 0 mm | - | 64 W/m² | - |
| 1777669697 | 13.89° C | 56% | 1012.8 hPa | 0 mm | - | 124 W/m² | - |
| 1777669394 | 13.33° C | 55% | 1012.8 hPa | 0 mm | - | 128 W/m² | - |
| 1777669090 | 13.33° C | 56% | 1012.7 hPa | 0 mm | - | 122 W/m² | - |
| 1777668787 | 13.89° C | 60% | 1012.9 hPa | 0 mm | - | 98 W/m² | - |
| 1777668484 | 13.89° C | 58% | 1013 hPa | 0 mm | - | 155 W/m² | - |
| 1777668181 | 12.78° C | 64% | 1013 hPa | 0 mm | - | 120 W/m² | - |
| 1777667877 | 12.78° C | 63% | 1012.9 hPa | 0 mm | - | 81 W/m² | - |
| 1777667575 | 12.78° C | 60% | 1013 hPa | 0 mm | - | 91 W/m² | - |
| 1777667271 | 12.78° C | 62% | 1012.9 hPa | 0 mm | - | 105 W/m² | - |
| 1777666968 | 13.33° C | 58% | 1012.9 hPa | 0 mm | - | 95 W/m² | - |
| 1777666665 | 13.89° C | 58% | 1012.9 hPa | 0 mm | - | 106 W/m² | - |
| 1777666362 | 14.44° C | 54% | 1012.7 hPa | 0 mm | - | 150 W/m² | - |
| 1777666058 | 15° C | 50% | 1012.7 hPa | 0 mm | - | 157 W/m² | - |
| 1777665756 | 15.56° C | 52% | 1012.6 hPa | 0 mm | - | 186 W/m² | - |
| 1777665453 | 15.56° C | 48% | 1012.9 hPa | 0 mm | - | 171 W/m² | - |
| 1777665149 | 14.44° C | 53% | 1012.6 hPa | 0 mm | - | 312 W/m² | - |
| 1777664845 | 14.44° C | 54% | 1012.8 hPa | 0 mm | - | 231 W/m² | - |
| 1777664541 | 15° C | 53% | 1012.9 hPa | 0 mm | - | 137 W/m² | - |
| 1777664237 | 15° C | 56% | 1013 hPa | 0 mm | - | 617 W/m² | - |
| 1777663936 | 14.44° C | 54% | 1013.2 hPa | 0 mm | - | 412 W/m² | - |
* Rain latest hour (hover to see other rain measurements)
** Current wind speed in m/s (hover to see current wind gust speed)